Greenland, New Hampshire, United States (03840)
Lat: 43.04N, Lon: 70.83W
Wx Zone: NHZ014
Local Info
Past Weather Observations for Thursday, September 29, 2016

NOTE: This archive is for the closest National Weather Service station to Greenland. Information may differ from the station used for current weather conditions.

Click here for Long-term Archive

Time Weather Temperature Dewpoint Humidity Pressure Winds Precip Visibility
23:58
Partly Cloudy
50°F / 10°C 46°F / 8°C 88% 30.51 in
(1033 mb)
N 4.6 mph
(N 7 kph)
- 10SM
22:58
Partly Cloudy
50°F / 10°C 46°F / 8°C 88% 30.54 in
(1034 mb)
N 5.8 mph
(N 9 kph)
- 10SM
21:58
Mostly Cloudy
50°F / 10°C 46°F / 8°C 88% 30.54 in
(1034 mb)
N 4.6 mph
(N 7 kph)
- 10SM
20:58
Mostly Cloudy
52°F / 11°C 46°F / 8°C 82% 30.51 in
(1033 mb)
Variable 4.6 mph
(Variable 7 kph)
- 10SM
19:58
Mostly Cloudy
54°F / 12°C 46°F / 8°C 77% 30.51 in
(1033 mb)
NNE 3.5 mph
(NNE 6 kph)
- 10SM
18:58
Mostly Cloudy
55°F / 13°C 46°F / 8°C 72% 30.51 in
(1033 mb)
ENE 5.8 mph
(ENE 9 kph)
- 10SM
17:58
Mostly Cloudy
55°F / 13°C 48°F / 9°C 77% 30.51 in
(1033 mb)
E 8.1 mph
(E 13 kph)
- 10SM
16:58
Mostly Cloudy
57°F / 14°C 46°F / 8°C 67% 30.48 in
(1032 mb)
E 11.5 mph
(E 19 kph)
- 10SM
15:58
Mostly Cloudy
59°F / 15°C 45°F / 7°C 59% 30.51 in
(1033 mb)
E 10.4 mph
(E 17 kph)
- 10SM
14:58
Partly Cloudy
61°F / 16°C 45°F / 7°C 55% 30.51 in
(1033 mb)
ENE 11.5 mph
(ENE 19 kph)
- 10SM
13:58
Partly Cloudy
61°F / 16°C 45°F / 7°C 55% 30.51 in
(1033 mb)
ENE 10.4 mph
(ENE 17 kph)
- 10SM
12:58
Partly Cloudy
61°F / 16°C 43°F / 6°C 52% 30.51 in
(1033 mb)
ENE 13.8 mph
(ENE 22 kph)
- 10SM
11:58
Partly Cloudy
61°F / 16°C 45°F / 7°C 55% 30.51 in
(1033 mb)
ENE 12.7 mph
(ENE 20 kph)
- 10SM
10:58
Partly Cloudy
61°F / 16°C 43°F / 6°C 52% 30.51 in
(1033 mb)
ENE 16.1 mph
(ENE 26 kph)
- 10SM
09:58
Partly Cloudy
59°F / 15°C 43°F / 6°C 55% 30.51 in
(1033 mb)
NE 16.1 mph
(NE 26 kph)
- 10SM
08:58
Partly Cloudy
57°F / 14°C 45°F / 7°C 63% 30.51 in
(1033 mb)
NE 10.4 mph
(NE 17 kph)
- 10SM
07:58
Partly Cloudy
54°F / 12°C 43°F / 6°C 67% 30.51 in
(1033 mb)
NE 12.7 mph
(NE 20 kph)
- 10SM
06:58
Partly Cloudy
50°F / 10°C 43°F / 6°C 76% 30.48 in
(1032 mb)
NE 12.7 mph
(NE 20 kph)
- 10SM
01:58
Partly Cloudy
55°F / 13°C 48°F / 9°C 77% 30.39 in
(1029 mb)
NNE 10.4 mph
(NNE 17 kph)
- 10SM
00:58
Mostly Cloudy
55°F / 13°C 48°F / 9°C 77% 30.39 in
(1029 mb)
NE 6.9 mph
(NE 11 kph)
- 10SM
Time Weather Temperature Dewpoint Humidity Pressure Winds Precip Visibility


Weather for websites

WeatherForYou.com, LLC is not responsible for any damages or problems caused by this service. Current weather conditions are obtained from the closest station including government and personal stations which may have varying degrees of accuracy. Weather forecasts are derived from the NOAA NDFD. Like all things, this site belongs to Jesus Christ... He just trusts us to maintain it. If you have any questions or comments email webmaster@weatherforyou.com

Copyright © 2016, WeatherForYou.com LLC. All rights reserved.